FW2941 Bradenton FL US current weather conditions

sailwx.info

Wind from 165

Air temperature 22.2° C
Dewpoint 21.4° C

Last reported at 2018-Dec-14 18:08 UTC.
Time now 2018-Dec-14 19:12 UTC

Location: N 27°29' W 082°23'.
View on Google Maps.

See reports from other nearby stations

  
Tides and Currents Weather Stations Pressure Air Temp Water Temp Dewpoint Dewpoint Depression Visibility Wind Speed Wind Dir Waves Ship Positions
date/time (UTC)wind fromknots sea level pressurealtimeterstation pressurevisibilityair tempwater tempwave heightnotes
2018-Dec-14 18:08 165 22.2
2018-Dec-14 18:03 246 0 gusting 2 22.2
2018-Dec-14 17:58 267 0 gusting 2 22.2
2018-Dec-14 17:53 243 22.2
2018-Dec-14 17:48 198 0 gusting 1 22.2
2018-Dec-14 17:43 257 21.7
2018-Dec-14 17:38 169 21.7
2018-Dec-14 17:33 140 21.7
2018-Dec-14 17:28 143 21.7
2018-Dec-14 17:23 102 21.7
2018-Dec-14 17:18 144 21.1
2018-Dec-14 17:13 212 21.1
2018-Dec-14 17:08 212 21.1
2018-Dec-14 17:03 132 21.1
2018-Dec-14 16:58 132 21.1
2018-Dec-14 16:53 203 21.1
2018-Dec-14 16:48 203 21.1
2018-Dec-14 16:43 208 21.1
2018-Dec-14 16:38 221 21.1
2018-Dec-14 16:33 236 21.1
2018-Dec-14 16:28 226 21.1
2018-Dec-14 16:23 108 21.1
2018-Dec-14 16:18 298 21.1
2018-Dec-14 16:13 238 21.1
2018-Dec-14 16:08 132 21.1
2018-Dec-14 16:03 245 21.1
2018-Dec-14 15:58 169 0 gusting 1 20.6
2018-Dec-14 15:53 136 20.6
2018-Dec-14 15:48 049 20.6
2018-Dec-14 15:43 067 20.6
2018-Dec-14 15:38 138 20.6
2018-Dec-14 15:33 101 0 gusting 2 20.6
2018-Dec-14 15:28 324 20.6
2018-Dec-14 15:23 265 20.6
2018-Dec-14 15:18 275 20.6
2018-Dec-14 15:13 120 0 gusting 3 20.6
2018-Dec-14 15:08 222 0 gusting 2 20.6
2018-Dec-14 15:03 121 20.6
2018-Dec-14 14:58 086 0 gusting 2 20.6
2018-Dec-14 14:53 198 21.1
2018-Dec-14 14:48 080 0 gusting 3 21.1
2018-Dec-14 14:43 267 0 gusting 3 21.1
2018-Dec-14 14:38 266 21.1
2018-Dec-14 14:33 240 0 gusting 5 21.1
2018-Dec-14 14:28 277 1 gusting 3 21.1
2018-Dec-14 14:23 106 0 gusting 5 21.7
2018-Dec-14 14:18 329 1 gusting 3 21.7
2018-Dec-14 14:13 268 1 gusting 4 21.7
2018-Dec-14 14:08 247 1 gusting 6 21.7
2018-Dec-14 14:03 223 2 gusting 6 21.7
2018-Dec-14 13:58 256 0 gusting 6 21.7
2018-Dec-14 13:53 290 1 gusting 6 21.7
2018-Dec-14 13:48 201 1 gusting 5 21.7
2018-Dec-14 13:43 266 1 gusting 6 21.7
2018-Dec-14 13:38 088 2 gusting 6 21.7
2018-Dec-14 13:33 078 3 gusting 6 21.7
2018-Dec-14 13:28 175 1 gusting 6 21.1
2018-Dec-14 13:23 229 1 gusting 8 21.1
2018-Dec-14 13:18 041 2 gusting 8 21.1
2018-Dec-14 13:13 236 1 gusting 5 21.1
2018-Dec-14 13:08 225 1 gusting 5 21.1
2018-Dec-14 13:03 233 1 gusting 6 21.1
2018-Dec-14 12:58 042 1 gusting 9 20.6
2018-Dec-14 12:53 226 2 gusting 9 20.6
2018-Dec-14 12:48 115 1 gusting 6 20.6
2018-Dec-14 12:43 242 1 gusting 6 20.6
2018-Dec-14 12:38 162 0 gusting 4 20.6
2018-Dec-14 12:33 020 0 gusting 4 20.6
2018-Dec-14 12:28 097 0 gusting 4 20.0
2018-Dec-14 12:23 255 1 gusting 6 20.0
2018-Dec-14 12:18 256 1 gusting 6 20.0
2018-Dec-14 12:13 195 3 gusting 6 20.0
2018-Dec-14 12:08 283 1 gusting 6 20.0
2018-Dec-14 12:03 084 1 gusting 6 20.0
2018-Dec-14 11:58 297 2 gusting 6 20.0
2018-Dec-14 11:53 222 1 gusting 6 20.0
2018-Dec-14 11:48 229 1 gusting 4 20.0
2018-Dec-14 11:43 224 1 gusting 6 20.0
2018-Dec-14 11:38 245 2 gusting 6 20.0
2018-Dec-14 11:33 203 1 gusting 5 20.0
2018-Dec-14 11:28 212 1 gusting 6 20.0
2018-Dec-14 11:23 251 1 gusting 5 20.0
2018-Dec-14 11:18 138 1 gusting 5 20.0
2018-Dec-14 11:13 162 1 gusting 9 20.0
2018-Dec-14 11:08 257 1 gusting 6 20.0
2018-Dec-14 11:03 118 2 gusting 5 20.0
2018-Dec-14 10:58 196 2 gusting 6 20.0
2018-Dec-14 10:53 182 2 gusting 6 20.0
2018-Dec-14 10:48 191 2 gusting 6 20.0
2018-Dec-14 10:43 286 1 gusting 6 20.0
2018-Dec-14 10:38 281 1 gusting 4 20.0
2018-Dec-14 10:33 236 1 gusting 4 20.0
2018-Dec-14 10:28 174 1 gusting 5 20.0
2018-Dec-14 10:23 176 1 gusting 6 20.0
2018-Dec-14 10:18 266 1 gusting 6 20.0
2018-Dec-14 10:13 101 2 gusting 6 20.0
2018-Dec-14 10:08 092 1 gusting 6 20.0
2018-Dec-14 10:03 292 1 gusting 5 20.0
2018-Dec-14 09:58 246 1 gusting 5 20.0
2018-Dec-14 09:53 238 0 gusting 6 20.0
2018-Dec-14 09:48 258 1 gusting 8 20.0
2018-Dec-14 09:43 218 2 gusting 8 20.0
2018-Dec-14 09:38 088 2 gusting 7 20.0
2018-Dec-14 09:33 260 2 gusting 6 20.0
2018-Dec-14 09:28 133 2 gusting 9 20.0
2018-Dec-14 09:23 152 2 gusting 9 20.0
2018-Dec-14 09:18 203 2 gusting 6 19.4
2018-Dec-14 09:13 236 2 gusting 9 19.4
2018-Dec-14 09:08 159 2 gusting 6 19.4
2018-Dec-14 09:03 238 2 gusting 6 19.4
2018-Dec-14 08:58 274 2 gusting 7 18.9
2018-Dec-14 08:53 136 1 gusting 6 18.9
2018-Dec-14 08:48 014 0 gusting 6 18.9
2018-Dec-14 08:43 119 1 gusting 5 18.9
2018-Dec-14 08:38 309 1 gusting 5 18.9
2018-Dec-14 08:33 231 1 gusting 5 18.9
2018-Dec-14 08:28 077 1 gusting 4 18.9
2018-Dec-14 08:23 161 0 gusting 5 18.9
2018-Dec-14 08:18 191 1 gusting 6 18.9
2018-Dec-14 08:13 111 2 gusting 6 18.9
2018-Dec-14 08:08 167 0 gusting 6 18.9
2018-Dec-14 08:03 266 1 gusting 6 18.9
2018-Dec-14 07:58 290 1 gusting 6 18.9
2018-Dec-14 07:53 198 1 gusting 6 18.9
2018-Dec-14 07:48 030 1 gusting 6 18.9
2018-Dec-14 07:43 210 1 gusting 6 18.9
2018-Dec-14 07:38 095 1 gusting 5 19.4
2018-Dec-14 07:33 127 0 gusting 4 18.9
2018-Dec-14 07:28 114 1 gusting 5 18.9
2018-Dec-14 07:23 302 0 gusting 4 18.9
2018-Dec-14 07:18 117 1 gusting 6 18.9
2018-Dec-14 07:13 264 0 gusting 4 18.3
2018-Dec-14 07:08 269 0 gusting 3 18.3
2018-Dec-14 07:03 131 1 gusting 3 18.3
2018-Dec-14 06:58 098 0 gusting 3 18.3
2018-Dec-14 06:53 223 0 gusting 3 18.3
2018-Dec-14 06:48 108 0 gusting 5 18.3
2018-Dec-14 06:43 137 0 gusting 5 18.3
2018-Dec-14 06:38 108 0 gusting 5 18.3
2018-Dec-14 06:33 185 1 gusting 4 18.3
2018-Dec-14 06:28 155 0 gusting 4 18.3
2018-Dec-14 06:23 250 0 gusting 3 18.3
2018-Dec-14 06:18 124 0 gusting 3 18.3
2018-Dec-14 06:13 136 0 gusting 2 18.3
2018-Dec-14 06:08 134 0 gusting 2 18.3
2018-Dec-14 06:03 112 18.9
2018-Dec-14 05:58 274 18.9
2018-Dec-14 05:53 168 18.9
2018-Dec-14 05:48 141 0 gusting 2 18.9
2018-Dec-14 05:43 216 18.9
2018-Dec-14 05:38 159 18.9
2018-Dec-14 05:33 076 0 gusting 3 18.9
2018-Dec-14 05:28 238 18.9
2018-Dec-14 05:23 004 0 gusting 6 18.9
2018-Dec-14 05:18 210 0 gusting 4 18.9
2018-Dec-14 05:13 238 18.9
2018-Dec-14 05:08 303 0 gusting 4 19.4
2018-Dec-14 05:03 282 0 gusting 3 19.4
2018-Dec-14 04:58 142 0 gusting 3 19.4
2018-Dec-14 04:53 172 0 gusting 3 19.4
2018-Dec-14 04:48 131 0 gusting 6 19.4
2018-Dec-14 04:43 259 0 gusting 4 19.4
2018-Dec-14 04:38 311 0 gusting 6 19.4
2018-Dec-14 04:33 152 19.4
2018-Dec-14 04:28 116 0 gusting 6 19.4
2018-Dec-14 04:23 243 0 gusting 4 19.4
2018-Dec-14 04:18 121 1 gusting 5 19.4
2018-Dec-14 04:13 154 1 gusting 5 19.4
2018-Dec-14 04:08 134 1 gusting 6 19.4
2018-Dec-14 04:03 096 1 gusting 6 19.4
2018-Dec-14 03:58 088 19.4
2018-Dec-14 03:53 093 0 gusting 7 19.4
2018-Dec-14 03:48 116 1 gusting 9 19.4
2018-Dec-14 03:43 027 1 gusting 9 19.4
2018-Dec-14 03:38 241 1 gusting 8 19.4
2018-Dec-14 03:33 064 0 gusting 8 20.0
2018-Dec-14 03:28 128 2 gusting 7 20.0
2018-Dec-14 03:23 105 1 gusting 5 20.0
2018-Dec-14 03:18 130 0 gusting 6 20.0
2018-Dec-14 03:13 060 1 gusting 6 20.0
2018-Dec-14 03:08 082 1 gusting 8 20.0
2018-Dec-14 03:03 131 1 gusting 9 20.6
2018-Dec-14 02:58 262 2 gusting 9 20.6
2018-Dec-14 02:53 252 2 gusting 7 20.6
2018-Dec-14 02:48 130 1 gusting 8 20.6
2018-Dec-14 02:43 107 2 gusting 8 20.6
2018-Dec-14 02:38 251 2 gusting 7 20.6
2018-Dec-14 02:33 108 1 gusting 6 20.6
2018-Dec-14 02:28 091 1 gusting 7 20.6
2018-Dec-14 02:23 109 2 gusting 7 20.6
2018-Dec-14 02:18 130 3 gusting 6 21.1
2018-Dec-14 02:13 098 1 gusting 6 21.1
2018-Dec-14 02:08 060 3 gusting 6 21.1
2018-Dec-14 02:03 104 1 gusting 6 21.1
2018-Dec-14 01:58 137 0 gusting 5 21.1
2018-Dec-14 01:53 162 1 gusting 6 21.1
2018-Dec-14 01:48 207 2 gusting 6 21.1
2018-Dec-14 01:43 159 1 gusting 5 21.7
2018-Dec-14 01:38 013 0 gusting 7 21.7
2018-Dec-14 01:33 131 1 gusting 7 21.7
2018-Dec-14 01:28 150 0 gusting 5 21.7
2018-Dec-14 01:23 220 0 gusting 4 21.1
2018-Dec-14 01:18 261 0 gusting 4 21.1
2018-Dec-14 01:13 283 0 gusting 4 21.1
2018-Dec-14 01:08 257 0 gusting 2 21.1
2018-Dec-14 01:03 197 0 gusting 4 21.1
2018-Dec-14 00:58 103 0 gusting 4 21.1
2018-Dec-14 00:53 216 0 gusting 3 21.1
2018-Dec-14 00:48 070 0 gusting 2 21.1
2018-Dec-14 00:43 124 0 gusting 2 21.1
2018-Dec-14 00:38 098 0 gusting 2 21.1
2018-Dec-14 00:33 070 0 gusting 2 21.1
2018-Dec-14 00:28 157 21.1
2018-Dec-14 00:23 116 21.1
2018-Dec-14 00:18 117 20.6
2018-Dec-14 00:13 119 20.6
2018-Dec-14 00:08 127 20.6
2018-Dec-14 00:03 124 20.6
2018-Dec-13 23:58 124 20.6
2018-Dec-13 23:53 124 20.6
2018-Dec-13 23:48 124 20.6
2018-Dec-13 23:43 132 20.6
2018-Dec-13 23:38 133 20.6
2018-Dec-13 23:33 133 20.6
2018-Dec-13 23:28 133 20.6
2018-Dec-13 23:23 133 20.6
2018-Dec-13 23:18 133 20.6
2018-Dec-13 23:13 133 20.6
2018-Dec-13 23:08 133 20.6
2018-Dec-13 23:03 133 20.6
2018-Dec-13 22:58 133 20.6
2018-Dec-13 22:53 133 20.6
2018-Dec-13 22:48 133 20.6
2018-Dec-13 22:43 133 21.1
2018-Dec-13 22:38 133 21.1
2018-Dec-13 22:33 133 21.1
2018-Dec-13 22:28 133 21.7
2018-Dec-13 22:23 133 21.7
2018-Dec-13 22:18 133 22.2
2018-Dec-13 22:13 133 22.2
2018-Dec-13 22:08 136 22.8
2018-Dec-13 22:03 220 23.3
2018-Dec-13 21:58 220 23.3
2018-Dec-13 21:53 220 23.9
2018-Dec-13 21:48 220 23.9
2018-Dec-13 21:43 220 23.9
2018-Dec-13 21:38 136 24.4
2018-Dec-13 21:33 214 24.4
2018-Dec-13 21:28 297 24.4
2018-Dec-13 21:23 233 0 gusting 2 25.0
2018-Dec-13 21:18 340 0 gusting 3 25.0
2018-Dec-13 21:13 201 0 gusting 4 25.0
2018-Dec-13 21:08 274 1 gusting 4 25.0
2018-Dec-13 21:03 121 1 gusting 3 25.0
2018-Dec-13 20:58 262 1 gusting 5 25.6
2018-Dec-13 20:53 069 2 gusting 5 25.6
2018-Dec-13 20:48 176 0 gusting 5 25.6
2018-Dec-13 20:43 297 1 gusting 4 26.1
2018-Dec-13 20:38 005 1 gusting 6 25.6
2018-Dec-13 20:33 058 2 gusting 6 25.6
2018-Dec-13 20:28 101 2 gusting 6 25.0
2018-Dec-13 20:23 160 1 gusting 6 25.0
2018-Dec-13 20:18 118 1 gusting 7 25.0
2018-Dec-13 20:13 208 1 gusting 7 25.0
2018-Dec-13 20:08 245 2 gusting 7 25.0
2018-Dec-13 20:03 281 1 gusting 5 25.0
2018-Dec-13 19:58 228 1 gusting 7 25.0
2018-Dec-13 19:53 085 1 gusting 7 25.0
2018-Dec-13 19:48 302 1 gusting 6 25.0
2018-Dec-13 19:43 354 1 gusting 6 25.0
2018-Dec-13 19:38 095 0 gusting 4 25.0
2018-Dec-13 19:33 232 1 gusting 6 25.0
2018-Dec-13 19:28 233 1 gusting 6 25.6
2018-Dec-13 19:23 192 1 gusting 4 25.6
2018-Dec-13 19:18 048 1 gusting 5 25.6
2018-Dec-13 19:13 086 2 gusting 5 26.1
2018-Dec-13 19:08 233 1 gusting 7 25.6
2018-Dec-13 19:03 243 2 gusting 7 25.6
2018-Dec-13 18:58 222 0 gusting 5 25.6
2018-Dec-13 18:53 147 1 gusting 4 25.6
2018-Dec-13 18:48 235 1 gusting 5 25.6
2018-Dec-13 18:43 234 1 gusting 6 25.0
2018-Dec-13 18:38 112 1 gusting 6 25.6
2018-Dec-13 18:33 097 1 gusting 6 25.6
2018-Dec-13 18:28 239 1 gusting 8 25.0
2018-Dec-13 18:23 273 3 gusting 8 25.0
2018-Dec-13 18:18 110 2 gusting 6 25.0
2018-Dec-13 18:13 309 1 gusting 4 24.4
2018-Dec-13 18:08 117 1 gusting 5 24.4
2018-Dec-13 18:03 117 2 gusting 5 24.4
2018-Dec-13 17:58 130 1 gusting 6 24.4
2018-Dec-13 17:53 160 2 gusting 6 24.4
2018-Dec-13 17:48 319 2 gusting 6 24.4
2018-Dec-13 17:43 124 0 gusting 6 24.4
2018-Dec-13 17:38 104 1 gusting 6 24.4
2018-Dec-13 17:33 138 2 gusting 11 24.4
2018-Dec-13 17:28 214 3 gusting 8 24.4
2018-Dec-13 17:23 079 1 gusting 13 23.9
2018-Dec-13 17:18 084 6 gusting 13 23.9
2018-Dec-13 17:13 188 4 gusting 13 23.9
2018-Dec-13 17:08 066 4 gusting 10 23.9
2018-Dec-13 17:03 124 2 gusting 10 23.9
2018-Dec-13 16:58 205 2 gusting 9 23.3
2018-Dec-13 16:53 148 2 gusting 13 23.3
2018-Dec-13 16:48 150 3 gusting 13 23.3
2018-Dec-13 16:43 135 3 gusting 9 23.3
2018-Dec-13 16:38 107 3 gusting 9 23.3
2018-Dec-13 16:33 176 2 gusting 6 23.3
2018-Dec-13 16:28 082 0 gusting 7 22.8
2018-Dec-13 16:23 131 2 gusting 8 22.8
2018-Dec-13 16:18 117 1 gusting 10 22.8
2018-Dec-13 16:13 008 1 gusting 10 22.8
2018-Dec-13 16:08 119 3 gusting 11 22.8
2018-Dec-13 16:03 312 1 gusting 11 22.2
2018-Dec-13 15:58 025 1 gusting 13 22.2
2018-Dec-13 15:53 091 3 gusting 13 22.2
2018-Dec-13 15:48 144 2 gusting 8 22.2
2018-Dec-13 15:43 075 3 gusting 8 22.2
2018-Dec-13 15:38 083 3 gusting 8 21.7
2018-Dec-13 15:33 044 2 gusting 6 21.7
2018-Dec-13 15:28 010 2 gusting 8 21.7
2018-Dec-13 15:23 061 2 gusting 13 21.1
2018-Dec-13 15:18 217 5 gusting 11 21.1
2018-Dec-13 15:13 158 4 gusting 11 20.6
2018-Dec-13 15:08 110 3 gusting 7 20.6
2018-Dec-13 15:03 269 2 gusting 7 20.6
2018-Dec-13 14:58 129 2 gusting 6 20.0
2018-Dec-13 14:53 067 0 gusting 6 20.0
2018-Dec-13 14:48 122 1 gusting 5 20.0
2018-Dec-13 14:43 128 2 gusting 5 19.4
2018-Dec-13 14:38 139 0 gusting 4 19.4
2018-Dec-13 14:33 118 1 gusting 4 18.9
2018-Dec-13 14:28 094 1 gusting 4 18.9
2018-Dec-13 14:23 117 1 gusting 6 18.3
2018-Dec-13 14:18 079 2 gusting 6 18.3
2018-Dec-13 14:13 053 0 gusting 5 18.3
2018-Dec-13 14:08 082 0 gusting 4 17.8
2018-Dec-13 14:03 102 0 gusting 4 17.8
2018-Dec-13 13:58 120 0 gusting 3 17.8
2018-Dec-13 13:53 129 0 gusting 3 17.2
2018-Dec-13 13:48 143 0 gusting 4 17.2
2018-Dec-13 13:38 115 0 gusting 3 16.7
2018-Dec-13 13:33 074 0 gusting 4 16.7
2018-Dec-13 13:28 109 0 gusting 4 16.7
2018-Dec-13 13:23 038 1 gusting 4 16.1
2018-Dec-13 13:18 053 0 gusting 1 15.6
2018-Dec-13 13:13 149 0 gusting 2 15.6
2018-Dec-13 13:08 099 0 gusting 2 15.0
2018-Dec-13 13:03 356 14.4
2018-Dec-13 12:58 356 14.4
2018-Dec-13 12:53 356 14.4
2018-Dec-13 12:48 356 14.4
2018-Dec-13 12:43 356 14.4
2018-Dec-13 12:38 356 14.4
2018-Dec-13 12:33 356 14.4
2018-Dec-13 12:28 025 13.9
2018-Dec-13 12:23 070 13.9
2018-Dec-13 12:18 102 13.9
2018-Dec-13 12:13 120 13.9
2018-Dec-13 12:08 094 13.9
2018-Dec-13 12:03 177 13.9
2018-Dec-13 11:58 094 0 gusting 2 13.9
2018-Dec-13 11:53 075 13.9
2018-Dec-13 11:48 052 0 gusting 3 13.9
2018-Dec-13 11:43 113 0 gusting 3 13.9
2018-Dec-13 11:38 048 0 gusting 3 13.9
2018-Dec-13 11:33 048 0 gusting 3 13.9
2018-Dec-13 11:28 074 0 gusting 3 13.9
2018-Dec-13 11:23 336 0 gusting 4 13.9
2018-Dec-13 11:18 096 1 gusting 6 13.9
2018-Dec-13 11:13 093 2 gusting 6 13.9
2018-Dec-13 11:08 097 1 gusting 4 13.9
2018-Dec-13 11:03 073 1 gusting 3 13.9
2018-Dec-13 10:58 061 1 gusting 2 13.9
2018-Dec-13 10:53 072 0 gusting 3 13.9
2018-Dec-13 10:48 105 0 gusting 3 13.9
2018-Dec-13 10:43 084 0 gusting 3 13.9
2018-Dec-13 10:38 030 0 gusting 4 13.9
2018-Dec-13 10:33 074 0 gusting 2 13.9
2018-Dec-13 10:28 126 0 gusting 4 13.3
2018-Dec-13 10:23 112 0 gusting 4 13.3
2018-Dec-13 10:18 098 0 gusting 4 13.3
2018-Dec-13 10:13 079 1 gusting 4 13.3
2018-Dec-13 10:08 068 13.3
2018-Dec-13 10:03 063 0 gusting 3 13.3
2018-Dec-13 09:58 096 0 gusting 3 13.3
2018-Dec-13 09:53 083 13.3
2018-Dec-13 09:48 090 1 gusting 2 13.3
2018-Dec-13 09:43 017 13.3
2018-Dec-13 09:38 044 0 gusting 1 13.3
2018-Dec-13 09:33 063 0 gusting 4 13.3
2018-Dec-13 09:28 091 0 gusting 3 13.3
2018-Dec-13 09:23 106 0 gusting 4 13.3
2018-Dec-13 09:18 087 0 gusting 4 13.3
2018-Dec-13 09:13 153 0 gusting 4 12.8
2018-Dec-13 09:08 079 0 gusting 3 12.8
2018-Dec-13 09:03 079 0 gusting 1 12.8
2018-Dec-13 08:58 105 0 gusting 2 12.8
2018-Dec-13 08:53 085 0 gusting 3 12.8
2018-Dec-13 08:48 064 0 gusting 3 12.8
2018-Dec-13 08:43 079 0 gusting 3 12.8
2018-Dec-13 08:38 124 0 gusting 2 12.8
2018-Dec-13 08:33 064 12.8
2018-Dec-13 08:28 114 12.8
2018-Dec-13 08:23 096 12.8
2018-Dec-13 08:18 099 12.8
2018-Dec-13 08:13 123 12.8
2018-Dec-13 08:08 055 12.8
2018-Dec-13 08:03 073 13.3
2018-Dec-13 07:58 128 0 gusting 1 13.3
2018-Dec-13 07:53 103 13.3
2018-Dec-13 07:48 057 13.3
2018-Dec-13 07:43 061 0 gusting 2 13.3
2018-Dec-13 07:38 065 13.3
2018-Dec-13 07:33 039 0 gusting 1 13.3
2018-Dec-13 07:28 090 13.3
2018-Dec-13 07:23 038 13.3
2018-Dec-13 07:18 080 0 gusting 2 13.3
2018-Dec-13 07:13 069 13.3
2018-Dec-13 07:08 129 0 gusting 2 13.3
2018-Dec-13 07:03 077 0 gusting 2 13.9
2018-Dec-13 06:58 079 0 gusting 3 13.9
2018-Dec-13 06:53 072 0 gusting 3 13.9
2018-Dec-13 06:48 260 0 gusting 3 13.3
2018-Dec-13 06:43 049 0 gusting 2 13.3
2018-Dec-13 06:38 097 13.3
2018-Dec-13 06:33 091 0 gusting 3 13.3
2018-Dec-13 06:28 103 0 gusting 4 13.3
2018-Dec-13 06:23 127 0 gusting 4 13.3
2018-Dec-13 06:18 148 1 gusting 4 13.3
2018-Dec-13 06:13 103 0 gusting 5 13.3
2018-Dec-13 06:08 085 1 gusting 5 13.3
2018-Dec-13 06:03 087 1 gusting 3 13.3
2018-Dec-13 05:58 054 0 gusting 4 13.3
2018-Dec-13 05:53 146 0 gusting 4 13.3
2018-Dec-13 05:48 064 0 gusting 3 13.3
2018-Dec-13 05:43 078 0 gusting 3 13.3
2018-Dec-13 05:38 124 0 gusting 3 13.3
2018-Dec-13 05:33 089 0 gusting 3 13.3
2018-Dec-13 05:28 139 13.3
2018-Dec-13 05:23 110 13.3
2018-Dec-13 05:18 131 13.3
2018-Dec-13 05:13 144 0 gusting 3 13.9
2018-Dec-13 05:08 139 0 gusting 3 13.9
2018-Dec-13 05:03 084 13.9
2018-Dec-13 04:58 104 0 gusting 3 13.9
2018-Dec-13 04:53 121 0 gusting 3 13.9
2018-Dec-13 04:48 198 0 gusting 3 13.9
2018-Dec-13 04:43 069 0 gusting 3 13.9
2018-Dec-13 04:38 117 1 gusting 3 13.9
2018-Dec-13 04:33 107 13.9
2018-Dec-13 04:28 096 13.9
2018-Dec-13 04:23 105 0 gusting 3 13.9
2018-Dec-13 04:18 096 0 gusting 3 13.9
2018-Dec-13 04:13 131 13.9
2018-Dec-13 04:08 108 0 gusting 1 13.9
2018-Dec-13 04:03 110 13.9
2018-Dec-13 03:58 084 13.9
2018-Dec-13 03:53 079 13.9
2018-Dec-13 03:48 094 13.9
2018-Dec-13 03:43 072 0 gusting 2 13.9
2018-Dec-13 03:38 094 0 gusting 2 13.9
2018-Dec-13 03:33 108 0 gusting 5 13.9
2018-Dec-13 03:28 060 0 gusting 5 13.9
2018-Dec-13 03:23 101 0 gusting 2 13.3
2018-Dec-13 03:18 105 13.3
2018-Dec-13 03:13 339 13.3
2018-Dec-13 03:08 339 13.3
2018-Dec-13 03:03 339 13.3
2018-Dec-13 02:58 339 13.3
2018-Dec-13 02:53 120 13.3
2018-Dec-13 02:48 005 13.3
2018-Dec-13 02:43 005 13.3
2018-Dec-13 02:38 004 13.3
2018-Dec-13 02:33 048 13.3
2018-Dec-13 02:28 046 13.3
2018-Dec-13 02:23 102 13.3
2018-Dec-13 02:18 103 0 gusting 3 13.3
2018-Dec-13 01:58 142 12.8
2018-Dec-13 01:53 142 12.8
2018-Dec-13 01:48 142 13.3
2018-Dec-13 01:43 142 13.3
2018-Dec-13 01:38 142 13.3
2018-Dec-13 01:33 027 13.3
2018-Dec-13 01:28 044 13.3
2018-Dec-13 01:23 122 0 gusting 2 13.3
2018-Dec-13 01:18 065 13.3
2018-Dec-13 01:13 105 0 gusting 3 12.8
2018-Dec-13 01:08 131 12.8
2018-Dec-13 01:03 112 12.8
2018-Dec-13 00:58 112 12.8
2018-Dec-13 00:53 112 12.8
2018-Dec-13 00:48 112 12.8
2018-Dec-13 00:43 112 13.3
2018-Dec-13 00:38 112 13.3
2018-Dec-13 00:33 112 13.3
2018-Dec-13 00:28 112 13.3
2018-Dec-13 00:23 112 12.8
2018-Dec-13 00:18 112 13.3
2018-Dec-13 00:13 129 13.3
2018-Dec-13 00:08 129 13.3
2018-Dec-13 00:03 129 13.3
2018-Dec-12 23:58 129 13.3
2018-Dec-12 23:53 129 13.3
2018-Dec-12 23:48 129 13.3
2018-Dec-12 23:43 129 13.3
2018-Dec-12 23:38 129 13.3
2018-Dec-12 23:33 129 13.9
2018-Dec-12 23:28 128 13.9
2018-Dec-12 23:23 129 13.9
2018-Dec-12 23:18 129 13.9
2018-Dec-12 23:13 129 14.4
2018-Dec-12 23:08 102 14.4
2018-Dec-12 23:03 084 14.4
2018-Dec-12 22:58 085 15.0
2018-Dec-12 22:53 060 15.0
2018-Dec-12 22:48 060 15.6
2018-Dec-12 22:43 060 15.6
2018-Dec-12 22:38 060 16.1
2018-Dec-12 22:33 060 16.7
2018-Dec-12 22:28 060 17.2
2018-Dec-12 22:23 060 17.2
2018-Dec-12 22:18 090 17.8
2018-Dec-12 22:13 084 17.8
2018-Dec-12 22:08 098 17.8
2018-Dec-12 22:03 096 0 gusting 1 17.8
2018-Dec-12 21:58 129 17.8
2018-Dec-12 21:53 120 0 gusting 1 17.8
2018-Dec-12 21:48 065 18.3
2018-Dec-12 21:43 083 18.3
2018-Dec-12 21:38 058 0 gusting 4 18.3
2018-Dec-12 21:33 075 0 gusting 4 18.3
2018-Dec-12 21:28 058 18.3
2018-Dec-12 21:23 033 18.9
2018-Dec-12 21:18 082 0 gusting 4 18.9
2018-Dec-12 21:13 069 1 gusting 2 18.9
2018-Dec-12 21:08 068 1 gusting 4 19.4
2018-Dec-12 21:03 108 0 gusting 4 19.4
2018-Dec-12 20:58 059 2 gusting 4 19.4
2018-Dec-12 20:53 136 20.0
2018-Dec-12 20:48 087 1 gusting 3 20.0
2018-Dec-12 20:43 131 0 gusting 3 20.0
2018-Dec-12 20:38 103 1 gusting 3 20.0
2018-Dec-12 20:33 091 0 gusting 3 20.0
2018-Dec-12 20:28 131 20.0
2018-Dec-12 20:23 107 0 gusting 3 20.0
2018-Dec-12 20:18 136 2 gusting 6 20.0
2018-Dec-12 20:13 106 0 gusting 6 20.0
2018-Dec-12 20:08 252 1 gusting 4 20.0
2018-Dec-12 20:03 064 1 gusting 4 20.0
2018-Dec-12 19:58 131 0 gusting 1 20.0
2018-Dec-12 19:53 004 0 gusting 4 20.0
2018-Dec-12 19:48 122 0 gusting 4 19.4
2018-Dec-12 19:43 317 19.4
2018-Dec-12 19:38 110 1 gusting 6 18.9
2018-Dec-12 19:33 039 2 gusting 6 18.9
2018-Dec-12 19:28 123 0 gusting 4 18.9
2018-Dec-12 19:23 289 0 gusting 5 18.9
2018-Dec-12 19:18 092 0 gusting 6 18.9
2018-Dec-12 19:13 138 2 gusting 6 18.9
2018-Dec-12 19:08 079 0 gusting 7 18.9
2018-Dec-12 19:03 071 2 gusting 7 18.9